Wind_Speed
86 93 90 85 90 78 83 81 73 71 70 73 70 66 69 68 63 59 59 61 63 59 57 54 52 50 47 49 46 47 36 39 44 45 52 35 36 35 31 25 18 16 26 27 26
86 89 96 93 95 91 81 81 84 75 75 78 77 74 77 73 71 66 66 63 67 69 62 63 58 57 51 51 54 48 47 48 51 49 53 34 32 28 29 39 27 20 26 25 30
81 87 93 93 94 94 88 85 83 83 78 77 83 73 82 75 73 77 75 73 69 73 74 69 66 63 60 59 57 55 44 50 55 52 53 36 39 31 33 40 26 27 26 22 31
76 83 90 92 91 94 98 90 86 88 85 81 88 85 80 79 77 82 80 78 75 75 78 76 72 71 66 65 66 59 54 53 54 57 56 46 44 33 33 36 33 23 26 20 25
73 77 82 89 93 93 96 92 97 90 93 90 86 88 88 86 81 87 87 85 82 80 83 76 80 79 77 73 73 65 67 62 59 62 52 49 50 39 41 40 48 37 28 26 22
70 75 78 82 90 95 96 96 93 99 94 96 95 93 92 90 89 93 93 94 91 87 85 84 86 83 82 84 80 77 74 67 62 62 61 49 54 49 52 50 52 47 36 38 31
64 68 74 79 82 91 93 96 96 100 101 97 97 100 94 94 98 96 96 98 99 92 89 94 88 82 81 89 88 83 81 78 67 62 63 63 51 54 59 54 51 55 47 42 37
59 62 65 71 77 83 86 96 98 94 100 99 99 102 105 102 101 105 102 98 101 102 100 95 100 97 88 86 92 92 87 83 74 76 72 71 54 56 64 60 55 60 60 47 49
54 58 62 65 69 72 76 83 88 91 97 101 104 101 105 109 107 105 108 109 103 108 109 109 105 105 103 94 93 93 91 89 86 84 83 80 65 57 63 62 58 63 62 58 53
44 49 54 59 62 65 67 71 75 80 85 91 96 102 106 110 111 113 112 111 118 111 109 113 117 114 108 105 94 96 91 92 87 90 94 90 80 74 72 68 64 65 66 63 58
33 38 43 48 53 57 60 63 65 68 72 76 80 86 93 102 107 108 117 118 118 120 122 119 119 116 119 116 111 106 110 102 96 94 100 98 98 90 83 80 76 68 69 70 62
20 24 28 33 39 44 48 52 56 60 64 68 72 75 78 81 86 91 100 109 116 124 128 128 128 124 121 119 121 116 113 103 102 99 101 97 103 98 96 89 84 79 70 71 64
24 26 28 30 32 34 36 37 40 42 46 51 56 59 64 69 73 81 86 93 99 104 110 117 122 128 130 130 128 121 122 113 110 115 110 102 104 100 99 92 85 85 79 76 72
32 33 33 36 37 37 37 39 42 44 48 51 55 58 59 61 64 68 72 77 83 91 94 100 107 112 118 121 129 126 126 128 122 124 116 117 107 108 99 93 95 90 88 81 82
28 30 33 35 36 38 40 41 43 44 46 48 53 58 61 64 65 68 74 76 81 88 85 84 87 93 100 108 115 117 128 128 129 134 122 125 122 105 104 93 96 88 84 86 86
25 23 23 24 26 28 30 32 35 38 40 43 46 49 53 56 58 59 65 70 73 82 84 79 82 82 88 95 99 105 118 127 132 137 142 123 125 115 115 99 95 94 89 89 96
21 21 22 22 25 26 29 31 32 35 37 39 42 44 46 49 51 55 58 62 64 69 78 74 74 74 76 83 91 96 105 118 131 141 135 132 135 124 117 116 108 106 101 94 97
24 23 24 25 28 29 31 32 36 39 42 43 46 47 50 52 55 59 60 64 64 63 67 62 66 60 64 69 79 88 98 106 122 132 129 130 140 132 121 119 114 113 109 100 94
24 23 24 27 30 31 32 34 37 42 45 46 46 47 48 50 51 55 55 63 58 53 52 54 49 54 57 61 70 82 89 95 109 120 123 127 132 131 133 129 120 112 117 109 103
23 23 23 24 28 30 33 36 37 40 43 44 44 43 43 44 46 50 50 50 50 46 45 46 46 42 48 52 63 74 82 89 97 107 117 123 127 128 130 130 131 125 126 123 115
31 31 29 28 28 29 30 33 35 39 45 46 44 42 41 41 44 44 45 43 44 45 39 39 39 34 39 45 53 60 72 83 88 92 104 111 119 122 125 129 131 137 134 129 131
39 38 35 33 32 34 35 37 37 38 43 46 48 45 40 42 42 40 44 44 46 46 44 36 36 34 28 31 43 51 61 74 81 88 96 104 109 117 125 130 134 135 136 133 136
45 42 43 40 39 40 41 43 41 40 42 45 47 48 40 38 38 40 44 46 47 47 47 42 37 31 33 25 31 40 51 61 72 81 88 99 100 108 119 125 130 131 134 137 139
42 43 44 44 40 40 43 44 43 42 40 45 50 50 47 42 36 39 43 46 50 51 49 46 43 31 33 29 25 32 43 53 60 72 83 89 94 105 110 117 124 128 131 137 139
44 45 45 44 45 44 44 45 43 40 42 46 49 50 50 47 41 39 42 48 49 50 48 47 44 39 33 32 30 29 35 43 53 63 74 85 87 96 105 113 123 128 131 132 137
47 45 46 44 46 48 49 48 46 43 42 45 48 47 50 50 44 43 45 44 49 51 49 48 46 46 36 35 30 30 31 31 44 57 65 74 81 90 97 105 117 125 131 135 137
49 46 45 47 45 47 51 52 50 51 49 46 43 44 48 50 49 45 44 46 48 50 49 49 50 49 43 41 38 31 29 34 37 45 52 62 65 79 88 97 105 116 123 130 132
Wind_Direction
221 220 223 224 217 222 220 224 227 231 230 230 226 229 233 228 230 234 231 232 228 226 226 224 226 224 229 234 233 241 242 247 249 253 253 266 271 284 288 283 273 275 257 243 239
221 222 224 222 226 225 222 230 230 235 228 229 229 235 236 235 237 228 235 235 232 229 230 226 224 227 224 235 230 226 243 250 249 248 256 262 264 266 280 284 285 264 261 242 242
222 224 221 225 228 228 225 227 232 232 231 235 228 237 236 236 236 227 230 233 235 239 230 231 230 226 226 228 235 228 221 242 252 250 257 258 259 266 275 284 276 259 265 260 241
222 223 225 225 227 230 228 228 229 230 232 233 231 232 239 235 232 233 234 231 234 235 235 232 235 232 232 231 238 233 228 231 247 251 257 259 254 264 270 278 276 260 260 258 251
225 224 226 227 230 230 231 232 232 232 233 234 235 238 238 238 234 235 235 232 233 234 236 235 237 238 234 236 235 235 232 230 237 238 244 250 253 260 271 273 275 268 262 262 260
229 229 228 229 230 231 232 234 235 236 235 234 236 238 241 239 240 240 238 237 239 239 235 240 244 241 238 234 236 239 233 225 229 238 242 233 251 258 268 269 270 268 259 268 260
232 232 232 233 233 233 234 236 237 237 238 239 239 242 240 241 241 239 242 244 242 237 241 240 236 244 245 240 237 237 235 231 229 238 242 235 243 257 257 257 255 259 259 269 261
237 237 237 237 238 237 238 238 238 241 239 241 243 243 243 243 241 239 242 243 243 240 240 241 239 236 239 241 240 237 240 236 241 237 242 239 222 243 248 248 244 253 260 259 265
239 240 241 242 242 242 242 242 241 242 244 245 245 245 244 244 243 242 242 242 244 246 243 242 241 239 238 240 238 244 242 240 238 240 242 242 228 230 244 247 246 253 259 261 265
242 242 243 244 246 247 247 246 247 247 247 248 248 249 248 245 246 246 245 247 247 246 246 246 244 242 242 240 239 238 244 244 239 241 241 240 234 230 230 237 247 252 258 260 262
241 243 244 246 247 248 249 250 251 251 251 251 252 251 250 250 251 251 249 249 246 248 248 248 249 247 246 246 241 238 240 243 248 241 242 237 239 234 233 235 237 245 254 258 263
241 243 244 246 248 250 251 252 253 254 254 255 257 255 254 253 253 253 254 253 252 250 250 250 250 248 246 245 245 239 236 240 236 242 239 242 238 241 236 236 237 238 242 253 259
249 254 254 252 253 254 254 254 255 256 257 257 257 257 258 257 256 257 256 256 255 254 254 253 250 250 249 248 249 245 238 234 237 237 239 243 243 241 236 234 240 244 246 245 254
255 256 256 253 253 257 258 258 257 259 258 258 259 259 260 260 261 262 262 262 263 262 260 257 255 253 252 250 248 246 244 239 234 236 237 239 241 243 241 240 238 238 246 246 246
261 260 259 257 256 257 256 256 257 257 259 260 261 263 263 265 266 267 268 268 270 270 268 265 261 258 255 253 249 246 244 243 238 236 234 236 236 237 245 242 244 243 240 247 245
259 258 260 261 262 262 263 264 262 262 265 268 268 271 271 271 270 271 272 272 277 277 276 272 266 261 256 253 249 244 241 242 240 239 234 232 238 237 239 239 242 245 242 240 246
269 265 267 272 274 275 273 272 276 275 276 277 279 280 282 283 284 283 284 286 287 285 284 281 271 265 256 250 247 244 239 237 238 239 238 234 235 237 238 238 240 245 244 239 241
272 272 274 276 275 275 276 278 280 282 282 281 282 283 285 286 290 289 292 294 294 289 286 279 276 267 255 248 243 242 239 235 236 237 238 234 237 234 236 238 236 242 245 242 240
267 267 267 268 274 277 279 280 281 285 287 288 287 288 288 290 290 292 296 296 297 297 296 291 279 272 259 249 241 238 238 237 235 236 236 235 235 234 233 236 237 237 239 241 240
256 269 278 284 284 287 289 291 294 297 298 300 301 301 299 297 298 301 302 306 308 308 303 300 292 280 265 252 242 236 237 235 232 233 234 234 234 234 234 236 238 237 234 238 239
262 265 270 275 282 291 293 297 305 306 305 305 305 307 302 301 308 309 309 316 319 322 317 308 302 289 276 257 250 241 237 236 234 236 235 234 233 232 234 233 235 236 235 234 239
259 265 270 275 278 283 289 294 300 307 313 312 311 314 309 310 313 315 319 323 328 329 329 326 320 310 289 277 257 244 240 236 235 233 231 233 233 232 232 232 233 235 234 234 235
259 264 268 268 271 279 287 289 296 301 308 314 314 315 312 314 315 319 327 329 331 332 336 333 330 322 310 288 270 258 245 240 237 234 233 231 227 232 233 234 235 234 236 235 234
262 269 273 271 274 278 282 286 292 301 303 309 313 318 318 318 314 323 329 334 336 338 340 338 334 332 322 308 279 262 251 246 240 238 237 236 231 227 229 233 235 237 237 237 237
259 265 273 274 277 281 283 286 290 297 301 306 311 314 316 318 318 325 326 332 335 338 342 342 339 332 333 320 304 280 267 251 245 240 237 237 232 234 232 230 233 233 234 236 238
262 264 267 270 276 280 281 284 288 292 299 309 305 311 312 314 316 317 323 331 334 333 339 341 344 333 332 322 311 299 281 267 261 250 244 239 235 233 234 233 234 236 234 235 236
258 261 262 271 270 272 277 280 288 292 297 307 307 310 312 313 315 314 317 327 331 331 334 341 343 338 330 324 314 308 291 284 267 257 248 247 242 240 236 236 236 238 239 240 239
Height
10698 10706 10714 10722 10731 10739 10744 10752 10758 10764 10770 10778 10785 10789 10795 10802 10808 10814 10819 10824 10826 10828 10834 10837 10840 10845 10853 10854 10859 10870 10879 10876 10872 10870 10865 10882 10884 10884 10886 10890 10898 10897 10895 10899 10901
10689 10697 10704 10712 10717 10725 10733 10740 10746 10753 10760 10767 10774 10779 10784 10789 10799 10806 10810 10815 10817 10819 10823 10828 10828 10834 10840 10842 10852 10860 10873 10870 10865 10865 10861 10881 10879 10878 10881 10884 10894 10896 10889 10895 10896
10677 10685 10694 10701 10708 10715 10723 10730 10736 10742 10748 10755 10761 10767 10771 10776 10786 10795 10796 10801 10805 10808 10814 10818 10821 10825 10831 10832 10838 10850 10862 10860 10861 10859 10856 10873 10874 10872 10876 10879 10887 10888 10886 10890 10893
10667 10676 10684 10691 10698 10703 10710 10716 10722 10728 10733 10741 10747 10753 10757 10762 10776 10780 10782 10787 10793 10797 10802 10806 10811 10816 10820 10824 10823 10840 10850 10851 10851 10853 10854 10865 10867 10864 10870 10871 10877 10882 10882 10886 10887
10657 10664 10672 10680 10686 10690 10696 10703 10709 10715 10722 10727 10732 10737 10743 10752 10765 10760 10765 10773 10780 10784 10787 10793 10797 10803 10811 10813 10814 10831 10834 10841 10841 10841 10847 10859 10860 10862 10864 10864 10861 10876 10878 10880 10883
10648 10656 10662 10667 10672 10679 10684 10690 10696 10702 10708 10713 10719 10725 10730 10740 10745 10749 10752 10755 10761 10769 10773 10777 10782 10790 10795 10801 10804 10808 10816 10828 10833 10834 10839 10850 10853 10857 10854 10856 10852 10866 10869 10871 10877
10640 10647 10652 10657 10661 10667 10672 10678 10684 10690 10695 10700 10705 10708 10717 10723 10727 10733 10734 10739 10744 10752 10755 10758 10765 10773 10780 10787 10787 10795 10804 10813 10827 10831 10829 10834 10846 10852 10846 10847 10843 10849 10860 10861 10867
10631 10637 10641 10646 10650 10655 10660 10668 10673 10677 10681 10685 10690 10696 10698 10704 10709 10714 10717 10723 10728 10732 10738 10739 10744 10756 10762 10767 10772 10779 10790 10807 10820 10815 10817 10814 10840 10837 10833 10835 10833 10835 10843 10855 10857
10619 10624 10629 10633 10638 10644 10649 10654 10659 10663 10667 10671 10675 10678 10680 10682 10690 10697 10701 10702 10708 10713 10718 10719 10722 10732 10742 10750 10757 10763 10780 10790 10799 10797 10797 10799 10826 10820 10820 10821 10826 10824 10830 10840 10848
10609 10613 10618 10621 10625 10631 10636 10640 10644 10648 10652 10655 10657 10659 10663 10666 10670 10675 10681 10684 10686 10689 10696 10698 10703 10713 10728 10730 10750 10751 10751 10762 10782 10778 10775 10786 10800 10803 10802 10809 10815 10817 10818 10824 10835
10601 10604 10607 10610 10614 10618 10622 10626 10631 10635 10635 10636 10638 10640 10644 10648 10649 10653 10657 10660 10663 10665 10669 10672 10679 10700 10700 10703 10717 10726 10727 10745 10756 10758 10751 10767 10767 10782 10789 10793 10802 10809 10812 10815 10825
10595 10597 10599 10601 10604 10607 10611 10614 10616 10618 10619 10618 10619 10623 10625 10630 10630 10631 10632 10635 10636 10639 10642 10648 10657 10663 10668 10673 10682 10698 10708 10726 10736 10730 10725 10738 10750 10766 10771 10784 10787 10795 10805 10808 10812
10591 10592 10593 10595 10596 10598 10601 10603 10605 10605 10605 10604 10605 10607 10607 10609 10612 10608 10613 10610 10610 10610 10614 10621 10626 10627 10633 10646 10651 10669 10684 10699 10706 10700 10699 10719 10726 10736 10753 10769 10783 10789 10796 10800 10801
10584 10585 10586 10588 10590 10592 10593 10594 10596 10596 10595 10594 10593 10592 10595 10593 10595 10594 10593 10592 10587 10583 10589 10591 10593 10597 10599 10611 10616 10633 10649 10656 10675 10665 10685 10687 10701 10708 10738 10755 10757 10773 10778 10786 10787
10575 10576 10577 10579 10580 10582 10583 10584 10584 10584 10584 10583 10581 10579 10580 10579 10581 10580 10574 10575 10567 10558 10561 10562 10564 10562 10567 10576 10582 10601 10611 10618 10639 10632 10662 10649 10670 10712 10712 10733 10741 10759 10769 10767 10770
10568 10569 10569 10570 10571 10573 10574 10574 10572 10572 10572 10570 10570 10567 10565 10565 10565 10563 10556 10557 10550 10535 10533 10534 10526 10530 10534 10535 10546 10560 10569 10581 10595 10597 10608 10650 10648 10687 10688 10718 10721 10731 10747 10753 10738
10562 10562 10562 10563 10564 10565 10564 10565 10565 10563 10563 10560 10559 10558 10556 10552 10550 10544 10541 10534 10528 10518 10501 10498 10496 10500 10497 10503 10508 10518 10531 10546 10546 10554 10586 10631 10613 10652 10680 10692 10702 10704 10720 10721 10726
10554 10555 10556 10556 10556 10556 10557 10557 10556 10553 10550 10550 10546 10546 10543 10540 10535 10528 10526 10513 10508 10497 10484 10480 10467 10472 10470 10475 10478 10488 10492 10508 10514 10522 10559 10592 10586 10631 10658 10663 10682 10692 10693 10702 10710
10547 10547 10548 10548 10548 10548 10548 10548 10546 10543 10540 10537 10536 10534 10530 10526 10523 10515 10512 10494 10489 10479 10469 10456 10454 10444 10445 10450 10457 10455 10466 10486 10490 10502 10532 10550 10570 10595 10621 10631 10653 10668 10671 10671 10676
10539 10540 10540 10540 10539 10539 10539 10537 10536 10533 10530 10527 10525 10522 10516 10512 10508 10501 10497 10481 10471 10463 10454 10441 10433 10430 10426 10428 10431 10436 10443 10452 10463 10481 10497 10518 10541 10566 10589 10613 10617 10623 10630 10632 10640
10530 10532 10532 10532 10531 10530 10529 10528 10526 10524 10519 10516 10514 10511 10506 10500 10496 10488 10482 10474 10463 10450 10442 10432 10421 10421 10413 10414 10416 10426 10430 10431 10445 10465 10478 10496 10517 10542 10558 10568 10564 10572 10586 10607 10607
10519 10522 10523 10523 10523 10521 10520 10518 10518 10515 10511 10506 10501 10499 10495 10489 10483 10477 10470 10464 10454 10445 10434 10425 10413 10408 10406 10404 10401 10405 10411 10415 10426 10433 10447 10469 10496 10509 10517 10522 10531 10544 10566 10580 10589
10507 10509 10510 10512 10513 10512 10510 10508 10507 10506 10502 10497 10492 10489 10486 10483 10474 10468 10461 10453 10445 10438 10428 10418 10409 10403 10396 10397 10392 10394 10395 10400 10408 10416 10427 10437 10468 10483 10491 10502 10511 10528 10533 10547 10559
10495 10497 10498 10500 10501 10501 10500 10498 10496 10494 10493 10488 10483 10479 10474 10471 10468 10461 10453 10446 10436 10429 10422 10411 10402 10400 10390 10386 10385 10381 10381 10385 10393 10402 10409 10419 10443 10452 10460 10472 10485 10498 10511 10520 10530
10483 10484 10485 10488 10488 10488 10488 10487 10487 10485 10481 10478 10473 10470 10465 10461 10456 10453 10446 10437 10433 10425 10419 10409 10399 10391 10388 10381 10377 10375 10373 10376 10379 10381 10386 10397 10418 10429 10441 10446 10446 10456 10470 10483 10489
10471 10473 10473 10475 10474 10475 10474 10475 10476 10475 10473 10469 10464 10460 10456 10453 10450 10444 10437 10434 10425 10416 10412 10406 10397 10384 10382 10374 10372 10370 10365 10366 10368 10368 10375 10377 10396 10408 10414 10423 10421 10424 10433 10439 10455
10458 10461 10461 10464 10464 10462 10461 10460 10462 10462 10462 10461 10455 10452 10448 10442 10438 10436 10431 10426 10421 10412 10406 10399 10392 10383 10375 10366 10361 10363 10361 10356 10353 10351 10359 10365 10386 10389 10397 10400 10406 10407 10416 10419 10439